| time (UTC) | temp F | wind direction | speed MPH | gust MPH | rain 1hr in | rain 24hr in | rain mn in | humidity % | barometer mb |
| 20260506191507 | 75 | 225 | 1.0 | 3.0 | 0.00 | 0.00 | 0.00 | 50 | 1019.0 |
| 20260506191007 | 75 | 266 | 0.0 | 2.0 | 0.00 | 0.00 | 0.00 | 52 | 1019.0 |
| 20260506190007 | 75 | 227 | 1.0 | 3.0 | 0.00 | 0.00 | 0.00 | 53 | 1019.0 |
| 20260506185507 | 74 | 205 | 1.0 | 4.0 | 0.00 | 0.00 | 0.00 | 53 | 1019.0 |
| 20260506185007 | 74 | 208 | 1.0 | 4.0 | 0.00 | 0.00 | 0.00 | 54 | 1019.0 |
| 20260506184008 | 72 | 261 | 0.0 | 2.0 | 0.00 | 0.00 | 0.00 | 55 | 1019.1 |
| 20260506183508 | 72 | 227 | 1.0 | 3.0 | 0.00 | 0.00 | 0.00 | 55 | 1019.1 |
| 20260506183008 | 71 | 187 | 1.0 | 4.0 | 0.00 | 0.00 | 0.00 | 57 | 1019.1 |
| 20260506182511 | 73 | 193 | 2.0 | 4.0 | 0.00 | 0.00 | 0.00 | 54 | 1019.2 |
| 20260506181507 | 72 | 242 | 0.0 | 2.0 | 0.00 | 0.00 | 0.00 | 56 | 1019.2 |
| 20260506181007 | 73 | 199 | 2.0 | 4.0 | 0.00 | 0.00 | 0.00 | 54 | 1019.2 |
| 20260506175507 | 72 | 238 | 1.0 | 3.0 | 0.00 | 0.00 | 0.00 | 55 | 1019.2 |
| 20260506175007 | 70 | 221 | 0.0 | 3.0 | 0.00 | 0.00 | 0.00 | 58 | 1019.2 |
| 20260506174509 | 69 | 241 | 0.0 | 1.0 | 0.00 | 0.00 | 0.00 | 59 | 1019.2 |
| 20260506174008 | 70 | 209 | 1.0 | 3.0 | 0.00 | 0.00 | 0.00 | 57 | 1019.3 |
| 20260506173507 | 69 | 228 | 1.0 | 3.0 | 0.00 | 0.00 | 0.00 | 61 | 1019.3 |
| 20260506173007 | 68 | 263 | 0.0 | 1.0 | 0.00 | 0.00 | 0.00 | 60 | 1019.3 |
| 20260506172507 | 66 | 277 | 0.0 | 0.0 | 0.00 | 0.00 | 0.00 | 63 | 1019.3 |
| 20260506171508 | 67 | 256 | 1.0 | 4.0 | 0.00 | 0.00 | 0.00 | 63 | 1019.3 |
| 20260506171007 | 67 | 195 | 1.0 | 4.0 | 0.00 | 0.00 | 0.00 | 63 | 1019.3 |
| 20260506170006 | 63 | 0 | 0.0 | 0.0 | 0.00 | 0.02 | 0.00 | 70 | 1019.3 |
| 20260506165507 | 63 | 0 | 0.0 | 0.0 | 0.00 | 0.02 | 0.00 | 70 | 1019.3 |
| 20260506165006 | 63 | 0 | 0.0 | 0.0 | 0.00 | 0.02 | 0.00 | 70 | 1019.3 |
| 20260506164507 | 61 | 0 | 4.0 | 9.0 | 0.00 | 0.02 | 0.00 | 74 | 1019.3 |
| 20260506164007 | 59 | 0 | 9.0 | 9.0 | 0.00 | 0.02 | 0.00 | 78 | 1019.3 |
| 20260506163507 | 59 | 0 | 9.0 | 9.0 | 0.00 | 0.02 | 0.00 | 78 | 1019.3 |
| 20260506163007 | 59 | 0 | 9.0 | 9.0 | 0.00 | 0.02 | 0.00 | 78 | 1019.3 |
| 20260506162507 | 59 | 0 | 9.0 | 9.0 | 0.00 | 0.02 | 0.00 | 78 | 1019.3 |
| 20260506162007 | 59 | 0 | 9.0 | 9.0 | 0.00 | 0.02 | 0.00 | 78 | 1019.3 |
| 20260506161506 | 59 | 0 | 9.0 | 9.0 | 0.00 | 0.02 | 0.00 | 78 | 1019.3 |
| 20260506161007 | 59 | 0 | 9.0 | 9.0 | 0.00 | 0.02 | 0.00 | 78 | 1019.3 |
| 20260506160007 | 59 | 197 | 5.0 | 9.0 | 0.00 | 0.02 | 0.00 | 78 | 1019.3 |
| 20260506155008 | 57 | 282 | 2.0 | 4.0 | 0.00 | 0.02 | 0.00 | 80 | 1019.4 |
| 20260506154507 | 57 | 197 | 3.0 | 4.0 | 0.00 | 0.04 | 0.00 | 81 | 1019.4 |
| 20260506154007 | 56 | 204 | 4.0 | 9.0 | 0.00 | 0.04 | 0.00 | 83 | 1019.4 |
| 20260506153508 | 56 | 217 | 5.0 | 7.0 | 0.00 | 0.04 | 0.00 | 83 | 1019.4 |
| 20260506153007 | 56 | 215 | 3.0 | 4.0 | 0.00 | 0.04 | 0.00 | 84 | 1019.4 |
| 20260506152508 | 56 | 228 | 5.0 | 9.0 | 0.00 | 0.05 | 0.00 | 84 | 1019.4 |
| 20260506152007 | 56 | 241 | 5.0 | 9.0 | 0.00 | 0.05 | 0.00 | 84 | 1019.4 |
| 20260506151525 | 56 | 208 | 3.0 | 4.0 | 0.00 | 0.05 | 0.00 | 85 | 1019.4 |
| 20260506151007 | 55 | 234 | 4.0 | 6.0 | 0.00 | 0.05 | 0.00 | 85 | 1019.3 |
| 20260506150007 | 55 | 193 | 4.0 | 9.0 | 0.00 | 0.05 | 0.00 | 86 | 1019.3 |
| 20260506145507 | 55 | 207 | 5.0 | 9.0 | 0.00 | 0.05 | 0.00 | 87 | 1019.2 |
| 20260506145007 | 55 | 238 | 5.0 | 9.0 | 0.00 | 0.05 | 0.00 | 87 | 1019.2 |
| 20260506144508 | 54 | 213 | 7.0 | 9.0 | 0.00 | 0.05 | 0.00 | 87 | 1019.2 |
| 20260506143507 | 54 | 232 | 6.0 | 9.0 | 0.00 | 0.05 | 0.00 | 87 | 1019.1 |
| 20260506143007 | 54 | 287 | 5.0 | 9.0 | 0.00 | 0.05 | 0.00 | 87 | 1019.1 |
| 20260506142508 | 54 | 202 | 5.0 | 9.0 | 0.00 | 0.05 | 0.00 | 88 | 1019.0 |
| 20260506142007 | 54 | 209 | 5.0 | 9.0 | 0.00 | 0.05 | 0.00 | 88 | 1018.9 |
| 20260506141507 | 54 | 189 | 6.0 | 9.0 | 0.00 | 0.05 | 0.00 | 88 | 1018.9 |
| 20260506141007 | 54 | 191 | 7.0 | 9.0 | 0.00 | 0.05 | 0.00 | 88 | 1018.8 |
| 20260506140508 | 54 | 225 | 5.0 | 9.0 | 0.00 | 0.05 | 0.00 | 88 | 1018.7 |
| 20260506140008 | 53 | 240 | 8.0 | 9.0 | 0.00 | 0.05 | 0.00 | 88 | 1018.6 |
| 20260506135507 | 53 | 0 | 9.0 | 9.0 | 0.00 | 0.05 | 0.00 | 88 | 1018.6 |
| 20260506135007 | 53 | 239 | 8.0 | 9.0 | 0.00 | 0.05 | 0.00 | 88 | 1018.6 |
| 20260506134507 | 53 | 236 | 6.0 | 9.0 | 0.00 | 0.05 | 0.00 | 88 | 1018.6 |
| 20260506134007 | 53 | 259 | 7.0 | 9.0 | 0.00 | 0.05 | 0.00 | 88 | 1018.6 |
| 20260506133508 | 53 | 242 | 8.0 | 9.0 | 0.00 | 0.05 | 0.00 | 88 | 1018.5 |
| 20260506133007 | 53 | 257 | 7.0 | 9.0 | 0.00 | 0.05 | 0.00 | 88 | 1018.5 |
| 20260506132508 | 53 | 251 | 7.0 | 9.0 | 0.00 | 0.05 | 0.00 | 88 | 1018.5 |
| 20260506131507 | 53 | 197 | 8.0 | 9.0 | 0.00 | 0.05 | 0.00 | 88 | 1018.4 |
| 20260506131025 | 53 | 194 | 6.0 | 9.0 | 0.00 | 0.05 | 0.00 | 88 | 1018.4 |
| 20260506130509 | 53 | 220 | 7.0 | 9.0 | 0.00 | 0.05 | 0.00 | 88 | 1018.3 |
| 20260506130007 | 53 | 231 | 6.0 | 9.0 | 0.00 | 0.05 | 0.00 | 88 | 1018.3 |
| 20260506125507 | 53 | 244 | 7.0 | 9.0 | 0.00 | 0.05 | 0.00 | 88 | 1018.3 |
| 20260506125008 | 53 | 233 | 6.0 | 9.0 | 0.00 | 0.05 | 0.00 | 88 | 1018.3 |
| 20260506124507 | 53 | 251 | 6.0 | 9.0 | 0.00 | 0.05 | 0.00 | 88 | 1018.2 |
| 20260506124007 | 53 | 244 | 7.0 | 9.0 | 0.00 | 0.05 | 0.00 | 88 | 1018.2 |
| 20260506123507 | 53 | 218 | 7.0 | 9.0 | 0.00 | 0.05 | 0.00 | 88 | 1018.2 |
| 20260506123008 | 53 | 293 | 6.0 | 9.0 | 0.00 | 0.05 | 0.00 | 88 | 1018.2 |
| 20260506122507 | 53 | 263 | 6.0 | 9.0 | 0.00 | 0.05 | 0.00 | 88 | 1018.2 |
| 20260506122007 | 53 | 240 | 7.0 | 9.0 | 0.00 | 0.05 | 0.00 | 88 | 1018.2 |
| 20260506121507 | 53 | 245 | 7.0 | 9.0 | 0.00 | 0.05 | 0.00 | 88 | 1018.2 |
| 20260506121008 | 53 | 232 | 6.0 | 9.0 | 0.00 | 0.05 | 0.00 | 88 | 1018.2 |
| 20260506120508 | 53 | 286 | 6.0 | 9.0 | 0.00 | 0.05 | 0.00 | 88 | 1018.2 |
| 20260506120008 | 53 | 227 | 7.0 | 9.0 | 0.00 | 0.05 | 0.00 | 88 | 1018.1 |
| 20260506115510 | 53 | 223 | 5.0 | 9.0 | 0.00 | 0.05 | 0.00 | 88 | 1018.1 |
| 20260506115007 | 53 | 218 | 6.0 | 9.0 | 0.00 | 0.05 | 0.00 | 88 | 1018.0 |
| 20260506114508 | 53 | 229 | 6.0 | 9.0 | 0.00 | 0.05 | 0.00 | 88 | 1018.0 |
| 20260506114007 | 53 | 202 | 7.0 | 9.0 | 0.00 | 0.05 | 0.00 | 88 | 1018.0 |
| 20260506113508 | 53 | 281 | 6.0 | 9.0 | 0.00 | 0.05 | 0.00 | 88 | 1017.9 |
| 20260506113008 | 53 | 280 | 5.0 | 9.0 | 0.00 | 0.05 | 0.00 | 88 | 1017.9 |
| 20260506112507 | 53 | 260 | 4.0 | 7.0 | 0.00 | 0.05 | 0.00 | 88 | 1017.8 |
| 20260506112007 | 53 | 246 | 5.0 | 9.0 | 0.00 | 0.05 | 0.00 | 88 | 1017.8 |
| 20260506111507 | 53 | 209 | 4.0 | 9.0 | 0.00 | 0.05 | 0.00 | 88 | 1017.8 |
| 20260506110509 | 53 | 240 | 5.0 | 9.0 | 0.00 | 0.05 | 0.00 | 88 | 1017.7 |
| 20260506110007 | 53 | 229 | 4.0 | 5.0 | 0.00 | 0.05 | 0.00 | 88 | 1017.7 |
| 20260506105507 | 53 | 270 | 4.0 | 4.0 | 0.00 | 0.05 | 0.00 | 88 | 1017.7 |
| 20260506105007 | 53 | 239 | 4.0 | 9.0 | 0.00 | 0.05 | 0.00 | 88 | 1017.7 |
| 20260506104507 | 53 | 235 | 4.0 | 9.0 | 0.00 | 0.05 | 0.00 | 88 | 1017.7 |
| 20260506104007 | 53 | 200 | 5.0 | 9.0 | 0.00 | 0.05 | 0.00 | 88 | 1017.7 |
| 20260506103509 | 53 | 229 | 6.0 | 9.0 | 0.00 | 0.05 | 0.00 | 88 | 1017.7 |
| 20260506103007 | 53 | 209 | 5.0 | 9.0 | 0.00 | 0.05 | 0.00 | 88 | 1017.7 |
| 20260506102507 | 53 | 288 | 4.0 | 9.0 | 0.00 | 0.05 | 0.00 | 88 | 1017.6 |
| 20260506102007 | 53 | 217 | 4.0 | 8.0 | 0.00 | 0.05 | 0.00 | 88 | 1017.6 |
| 20260506101508 | 53 | 231 | 5.0 | 9.0 | 0.00 | 0.05 | 0.00 | 88 | 1017.6 |
| 20260506100509 | 53 | 238 | 5.0 | 9.0 | 0.00 | 0.05 | 0.00 | 88 | 1017.5 |
| 20260506100008 | 53 | 237 | 5.0 | 9.0 | 0.00 | 0.05 | 0.00 | 89 | 1017.5 |
| 20260506095508 | 53 | 224 | 3.0 | 8.0 | 0.00 | 0.05 | 0.00 | 89 | 1017.6 |
| 20260506095008 | 53 | 267 | 2.0 | 4.0 | 0.00 | 0.05 | 0.00 | 89 | 1017.6 |
| 20260506094507 | 53 | 228 | 5.0 | 9.0 | 0.00 | 0.05 | 0.00 | 89 | 1017.5 |
| 20260506094007 | 53 | 245 | 4.0 | 9.0 | 0.00 | 0.05 | 0.00 | 89 | 1017.5 |
| 20260506093507 | 53 | 235 | 4.0 | 6.0 | 0.00 | 0.05 | 0.00 | 89 | 1017.4 |
| 20260506093008 | 53 | 262 | 3.0 | 4.0 | 0.00 | 0.05 | 0.00 | 89 | 1017.4 |
| 20260506092507 | 53 | 235 | 4.0 | 9.0 | 0.00 | 0.05 | 0.00 | 89 | 1017.5 |
| 20260506092007 | 53 | 250 | 4.0 | 9.0 | 0.00 | 0.05 | 0.00 | 89 | 1017.5 |
| 20260506091507 | 53 | 256 | 3.0 | 7.0 | 0.00 | 0.05 | 0.00 | 89 | 1017.5 |
| 20260506091009 | 53 | 220 | 5.0 | 9.0 | 0.00 | 0.05 | 0.00 | 89 | 1017.5 |
| 20260506090510 | 53 | 242 | 4.0 | 9.0 | 0.00 | 0.05 | 0.00 | 89 | 1017.5 |
| 20260506090008 | 53 | 240 | 3.0 | 4.0 | 0.00 | 0.05 | 0.00 | 89 | 1017.5 |
| 20260506085508 | 53 | 251 | 3.0 | 9.0 | 0.00 | 0.05 | 0.00 | 89 | 1017.5 |
| 20260506085008 | 53 | 243 | 3.0 | 4.0 | 0.00 | 0.06 | 0.00 | 89 | 1017.6 |
| 20260506084507 | 53 | 212 | 3.0 | 4.0 | 0.00 | 0.07 | 0.00 | 88 | 1017.6 |
| 20260506084008 | 53 | 215 | 3.0 | 4.0 | 0.00 | 0.07 | 0.00 | 88 | 1017.6 |
| 20260506083508 | 53 | 243 | 4.0 | 9.0 | 0.00 | 0.08 | 0.00 | 88 | 1017.5 |
| 20260506083007 | 53 | 243 | 4.0 | 9.0 | 0.00 | 0.09 | 0.00 | 88 | 1017.6 |
| 20260506082507 | 53 | 218 | 4.0 | 8.0 | 0.00 | 0.09 | 0.00 | 88 | 1017.5 |
| 20260506082008 | 53 | 219 | 3.0 | 4.0 | 0.00 | 0.09 | 0.00 | 88 | 1017.5 |
| 20260506081508 | 53 | 248 | 4.0 | 9.0 | 0.00 | 0.09 | 0.00 | 88 | 1017.4 |
| 20260506080507 | 53 | 269 | 5.0 | 9.0 | 0.00 | 0.09 | 0.00 | 88 | 1017.5 |
| 20260506073508 | 52 | 233 | 7.0 | 9.0 | 0.00 | 0.17 | 0.00 | 90 | 1017.1 |
| 20260506073007 | 52 | 231 | 8.0 | 9.0 | 0.00 | 0.17 | 0.00 | 90 | 1017.2 |
| 20260506072508 | 52 | 255 | 5.0 | 9.0 | 0.00 | 0.17 | 0.00 | 90 | 1017.1 |
| 20260506072007 | 52 | 223 | 8.0 | 9.0 | 0.00 | 0.18 | 0.00 | 90 | 1017.1 |
| 20260506071507 | 52 | 242 | 6.0 | 9.0 | 0.00 | 0.19 | 0.00 | 90 | 1017.0 |
| 20260506062007 | 53 | 203 | 5.0 | 9.0 | 0.00 | 0.26 | 0.20 | 88 | 1016.7 |
| 20260506061507 | 53 | 271 | 4.0 | 6.0 | 0.00 | 0.26 | 0.20 | 87 | 1016.7 |
| 20260506061008 | 53 | 259 | 4.0 | 6.0 | 0.00 | 0.26 | 0.20 | 87 | 1016.6 |
| 20260506051007 | 54 | 248 | 6.0 | 9.0 | 0.00 | 0.31 | 0.20 | 85 | 1016.2 |
| 20260506045007 | 55 | 195 | 4.0 | 4.0 | 0.00 | 0.34 | 0.20 | 83 | 1016.1 |
| 20260506044507 | 55 | 221 | 3.0 | 4.0 | 0.00 | 0.34 | 0.20 | 83 | 1016.1 |
| 20260506044008 | 55 | 201 | 4.0 | 8.0 | 0.00 | 0.35 | 0.20 | 82 | 1016.0 |
| 20260506043507 | 55 | 212 | 4.0 | 9.0 | 0.00 | 0.36 | 0.20 | 82 | 1015.9 |
| 20260506043007 | 55 | 212 | 3.0 | 4.0 | 0.00 | 0.39 | 0.20 | 82 | 1015.9 |
| 20260506042507 | 55 | 265 | 3.0 | 4.0 | 0.00 | 0.40 | 0.20 | 81 | 1015.8 |
| 20260506042007 | 56 | 253 | 3.0 | 6.0 | 0.00 | 0.41 | 0.20 | 81 | 1015.7 |
| 20260506041508 | 56 | 200 | 3.0 | 4.0 | 0.00 | 0.42 | 0.20 | 81 | 1015.7 |
| 20260506041009 | 56 | 225 | 3.0 | 6.0 | 0.00 | 0.43 | 0.20 | 81 | 1015.6 |
| 20260506040008 | 56 | 223 | 4.0 | 6.0 | 0.00 | 0.45 | 0.20 | 80 | 1015.5 |
| 20260506035507 | 56 | 247 | 4.0 | 9.0 | 0.00 | 0.45 | 0.20 | 80 | 1015.5 |
| 20260506034508 | 56 | 236 | 6.0 | 9.0 | 0.00 | 0.45 | 0.20 | 79 | 1015.4 |
| 20260506034017 | 57 | 212 | 4.0 | 8.0 | 0.00 | 0.45 | 0.20 | 79 | 1015.4 |
| 20260506033508 | 57 | 260 | 4.0 | 9.0 | 0.00 | 0.45 | 0.20 | 78 | 1015.3 |
| 20260506033007 | 57 | 272 | 4.0 | 9.0 | 0.00 | 0.45 | 0.20 | 78 | 1015.2 |
| 20260506032507 | 57 | 240 | 3.0 | 9.0 | 0.00 | 0.45 | 0.20 | 78 | 1015.1 |
| 20260506032007 | 57 | 291 | 3.0 | 5.0 | 0.00 | 0.45 | 0.20 | 78 | 1014.9 |
| 20260506031009 | 57 | 191 | 3.0 | 4.0 | 0.00 | 0.45 | 0.20 | 77 | 1014.8 |
| 20260506030010 | 57 | 194 | 3.0 | 4.0 | 0.00 | 0.45 | 0.20 | 76 | 1014.7 |
| 20260506025507 | 57 | 235 | 5.0 | 8.0 | 0.00 | 0.45 | 0.20 | 76 | 1014.7 |
| 20260506025007 | 58 | 240 | 2.0 | 4.0 | 0.00 | 0.45 | 0.20 | 76 | 1014.7 |
| 20260506024508 | 58 | 234 | 5.0 | 9.0 | 0.00 | 0.45 | 0.20 | 76 | 1014.6 |
| 20260506023508 | 58 | 236 | 5.0 | 9.0 | 0.00 | 0.45 | 0.20 | 76 | 1014.5 |
| 20260506023008 | 58 | 212 | 6.0 | 9.0 | 0.00 | 0.45 | 0.20 | 75 | 1014.5 |
| 20260506022507 | 58 | 259 | 4.0 | 9.0 | 0.00 | 0.45 | 0.20 | 75 | 1014.5 |
| 20260506021524 | 59 | 265 | 3.0 | 5.0 | 0.00 | 0.45 | 0.20 | 75 | 1014.4 |
| 20260506020008 | 59 | 221 | 6.0 | 9.0 | 0.00 | 0.45 | 0.20 | 74 | 1014.3 |
| 20260506014507 | 60 | 239 | 7.0 | 9.0 | 0.00 | 0.45 | 0.20 | 74 | 1014.1 |
| 20260506014007 | 60 | 211 | 5.0 | 9.0 | 0.00 | 0.45 | 0.20 | 75 | 1014.0 |
| 20260506013508 | 60 | 224 | 6.0 | 9.0 | 0.00 | 0.45 | 0.20 | 74 | 1014.0 |
| 20260506012507 | 61 | 234 | 5.0 | 9.0 | 0.00 | 0.45 | 0.20 | 74 | 1014.0 |
| 20260506012008 | 61 | 193 | 6.0 | 9.0 | 0.00 | 0.45 | 0.20 | 74 | 1014.0 |
| 20260506010508 | 61 | 252 | 7.0 | 9.0 | 0.00 | 0.45 | 0.20 | 73 | 1014.0 |
| 20260506010007 | 62 | 240 | 4.0 | 8.0 | 0.00 | 0.45 | 0.20 | 73 | 1013.9 |
| 20260506005007 | 62 | 194 | 5.0 | 9.0 | 0.00 | 0.45 | 0.20 | 73 | 1013.9 |
| 20260506003007 | 62 | 218 | 2.0 | 5.0 | 0.00 | 0.45 | 0.20 | 72 | 1013.8 |
| 20260506002508 | 62 | 203 | 4.0 | 9.0 | 0.00 | 0.45 | 0.20 | 71 | 1013.8 |
| 20260506002007 | 63 | 270 | 3.0 | 6.0 | 0.00 | 0.45 | 0.20 | 70 | 1013.7 |
| 20260506001507 | 63 | 247 | 3.0 | 8.0 | 0.00 | 0.45 | 0.20 | 71 | 1013.7 |
| 20260506001007 | 63 | 230 | 1.0 | 5.0 | 0.00 | 0.45 | 0.20 | 71 | 1013.7 |
| 20260506000008 | 63 | 249 | 2.0 | 6.0 | 0.00 | 0.45 | 0.20 | 69 | 1013.8 |
| 20260505235508 | 64 | 196 | 1.0 | 5.0 | 0.00 | 0.45 | 0.20 | 69 | 1013.8 |
| 20260505234507 | 63 | 223 | 2.0 | 5.0 | 0.00 | 0.45 | 0.20 | 69 | 1013.8 |
| 20260505234007 | 64 | 283 | 3.0 | 5.0 | 0.00 | 0.45 | 0.20 | 69 | 1013.8 |
| 20260505233507 | 63 | 255 | 2.0 | 6.0 | 0.00 | 0.45 | 0.20 | 72 | 1013.8 |
| 20260505233007 | 62 | 201 | 2.0 | 8.0 | 0.00 | 0.45 | 0.20 | 72 | 1013.8 |
| 20260505232508 | 62 | 239 | 1.0 | 5.0 | 0.00 | 0.45 | 0.20 | 72 | 1013.9 |
| 20260505232008 | 62 | 196 | 2.0 | 5.0 | 0.00 | 0.45 | 0.20 | 72 | 1013.9 |
| 20260505231507 | 62 | 241 | 2.0 | 8.0 | 0.00 | 0.45 | 0.20 | 71 | 1013.9 |
| 20260505231007 | 63 | 195 | 1.0 | 4.0 | 0.00 | 0.45 | 0.20 | 72 | 1013.9 |
| 20260505230007 | 62 | 244 | 2.0 | 5.0 | 0.00 | 0.45 | 0.20 | 72 | 1013.9 |
| 20260505225508 | 62 | 235 | 2.0 | 6.0 | 0.00 | 0.45 | 0.20 | 73 | 1013.9 |
| 20260505225008 | 62 | 261 | 1.0 | 5.0 | 0.00 | 0.45 | 0.20 | 72 | 1013.9 |
| 20260505224007 | 63 | 235 | 3.0 | 6.0 | 0.00 | 0.45 | 0.20 | 72 | 1014.0 |
| 20260505223507 | 63 | 226 | 2.0 | 6.0 | 0.00 | 0.45 | 0.20 | 72 | 1014.0 |
| 20260505223011 | 63 | 238 | 1.0 | 4.0 | 0.00 | 0.45 | 0.20 | 72 | 1014.0 |
| 20260505222508 | 63 | 226 | 1.0 | 4.0 | 0.00 | 0.45 | 0.20 | 71 | 1014.0 |
| 20260505222007 | 63 | 259 | 1.0 | 5.0 | 0.00 | 0.45 | 0.20 | 71 | 1014.0 |
| 20260505221007 | 63 | 225 | 1.0 | 5.0 | 0.00 | 0.45 | 0.20 | 71 | 1014.1 |
| 20260505220509 | 64 | 189 | 1.0 | 4.0 | 0.00 | 0.45 | 0.20 | 70 | 1014.1 |
| 20260505215508 | 63 | 226 | 1.0 | 5.0 | 0.00 | 0.45 | 0.20 | 71 | 1014.1 |
| 20260505213508 | 61 | 241 | 3.0 | 8.0 | 0.00 | 0.45 | 0.20 | 75 | 1014.3 |
| 20260505213007 | 61 | 220 | 4.0 | 7.0 | 0.00 | 0.45 | 0.20 | 76 | 1014.3 |
| 20260505212507 | 61 | 216 | 3.0 | 4.0 | 0.00 | 0.45 | 0.20 | 76 | 1014.4 |
| 20260505211508 | 61 | 216 | 3.0 | 4.0 | 0.00 | 0.45 | 0.20 | 75 | 1014.4 |
| 20260505210007 | 62 | 208 | 1.0 | 4.0 | 0.00 | 0.45 | 0.20 | 71 | 1014.3 |
| 20260505205007 | 64 | 249 | 1.0 | 4.0 | 0.00 | 0.45 | 0.20 | 70 | 1014.4 |
| 20260505202507 | 62 | 221 | 2.0 | 5.0 | 0.00 | 0.45 | 0.20 | 71 | 1014.5 |
| 20260505202008 | 62 | 208 | 2.0 | 5.0 | 0.00 | 0.45 | 0.20 | 71 | 1014.5 |
| 20260505201008 | 61 | 246 | 4.0 | 9.0 | 0.00 | 0.45 | 0.20 | 74 | 1014.5 |
| 20260505200007 | 61 | 214 | 3.0 | 4.0 | 0.00 | 0.45 | 0.20 | 77 | 1014.7 |
| 20260505195507 | 61 | 219 | 3.0 | 4.0 | 0.00 | 0.45 | 0.20 | 77 | 1014.7 |
| 20260505195008 | 61 | 238 | 3.0 | 4.0 | 0.00 | 0.45 | 0.20 | 77 | 1014.7 |
| 20260505194507 | 60 | 242 | 4.0 | 9.0 | 0.00 | 0.45 | 0.20 | 78 | 1014.7 |
| 20260505193507 | 60 | 211 | 5.0 | 9.0 | 0.00 | 0.45 | 0.20 | 78 | 1014.7 |
| 20260505192507 | 61 | 205 | 3.0 | 4.0 | 0.00 | 0.45 | 0.20 | 77 | 1014.7 |
| 20260505192008 | 61 | 194 | 3.0 | 4.0 | 0.00 | 0.45 | 0.20 | 79 | 1014.6 |